| time (UTC) | temp F | wind direction | speed knots | gust knots | rain 1hr in | rain 24hr in | rain mn in | humidity % | barometer mb |
| 20260505011537 | 64 | 152 | 1.7 | 6.1 | 0.00 | 0.00 | 0.00 | 55 | 1007.9 |
| 20260505011036 | 64 | 145 | 1.7 | 3.5 | 0.00 | 0.00 | 0.00 | 55 | 1007.9 |
| 20260505010534 | 64 | 143 | 1.7 | 8.7 | 0.00 | 0.00 | 0.00 | 55 | 1007.9 |
| 20260505010035 | 64 | 148 | 1.7 | 8.7 | 0.00 | 0.00 | 0.00 | 55 | 1007.9 |
| 20260505005534 | 64 | 197 | 1.7 | 5.2 | 0.00 | 0.00 | 0.00 | 55 | 1007.8 |
| 20260505005033 | 64 | 124 | 0.9 | 7.0 | 0.00 | 0.00 | 0.00 | 56 | 1007.8 |
| 20260505004532 | 64 | 215 | 0.9 | 4.3 | 0.00 | 0.00 | 0.00 | 55 | 1007.8 |
| 20260505004031 | 64 | 168 | 0.9 | 4.3 | 0.00 | 0.00 | 0.00 | 55 | 1007.8 |
| 20260505003533 | 64 | 113 | 0.9 | 4.3 | 0.00 | 0.00 | 0.00 | 55 | 1007.7 |
| 20260505003033 | 64 | 139 | 0.9 | 3.5 | 0.00 | 0.00 | 0.00 | 55 | 1007.9 |
| 20260505002530 | 65 | 151 | 0.0 | 2.6 | 0.00 | 0.00 | 0.00 | 55 | 1007.8 |
| 20260505002029 | 65 | 152 | 0.9 | 2.6 | 0.00 | 0.00 | 0.00 | 54 | 1007.7 |
| 20260505001530 | 65 | 124 | 0.9 | 5.2 | 0.00 | 0.00 | 0.00 | 54 | 1007.7 |
| 20260505001029 | 66 | 165 | 1.7 | 5.2 | 0.00 | 0.00 | 0.00 | 53 | 1007.7 |
| 20260505000531 | 66 | 136 | 0.9 | 4.3 | 0.00 | 0.00 | 0.00 | 53 | 1007.7 |
| 20260505000029 | 66 | 158 | 0.9 | 5.2 | 0.00 | 0.00 | 0.00 | 53 | 1007.7 |
| 20260504235525 | 66 | 160 | 1.7 | 5.2 | 0.00 | 0.00 | 0.00 | 53 | 1007.7 |
| 20260504235025 | 66 | 115 | 0.9 | 3.5 | 0.00 | 0.00 | 0.00 | 53 | 1007.6 |
| 20260504234524 | 67 | 111 | 0.9 | 3.5 | 0.00 | 0.00 | 0.00 | 52 | 1007.5 |
| 20260504234029 | 67 | 143 | 0.9 | 2.6 | 0.00 | 0.00 | 0.00 | 52 | 1007.5 |
| 20260504233523 | 67 | 167 | 0.0 | 3.5 | 0.00 | 0.00 | 0.00 | 51 | 1007.4 |
| 20260504233022 | 68 | 154 | 0.9 | 4.3 | 0.00 | 0.00 | 0.00 | 50 | 1007.3 |
| 20260504232522 | 69 | 152 | 0.9 | 3.5 | 0.00 | 0.00 | 0.00 | 49 | 1007.2 |
| 20260504232021 | 69 | 149 | 0.9 | 8.7 | 0.00 | 0.00 | 0.00 | 49 | 1007.3 |
| 20260504231520 | 69 | 116 | 1.7 | 7.8 | 0.00 | 0.00 | 0.00 | 48 | 1007.3 |
| 20260504231020 | 70 | 165 | 0.9 | 7.0 | 0.00 | 0.00 | 0.00 | 48 | 1007.3 |
| 20260504230520 | 71 | 206 | 1.7 | 7.0 | 0.00 | 0.00 | 0.00 | 47 | 1007.3 |
| 20260504230018 | 72 | 124 | 1.7 | 5.2 | 0.00 | 0.00 | 0.00 | 46 | 1007.2 |
| 20260504225518 | 72 | 201 | 0.9 | 4.3 | 0.00 | 0.00 | 0.00 | 45 | 1007.2 |
| 20260504225017 | 72 | 203 | 0.9 | 4.3 | 0.00 | 0.00 | 0.00 | 45 | 1007.2 |
| 20260504224519 | 72 | 168 | 1.7 | 7.0 | 0.00 | 0.00 | 0.00 | 44 | 1007.2 |
| 20260504224016 | 73 | 171 | 1.7 | 7.0 | 0.00 | 0.00 | 0.00 | 45 | 1007.2 |
| 20260504223515 | 73 | 148 | 1.7 | 6.1 | 0.00 | 0.00 | 0.00 | 44 | 1007.3 |
| 20260504223015 | 73 | 143 | 0.9 | 4.3 | 0.00 | 0.00 | 0.00 | 45 | 1007.3 |
| 20260504222513 | 73 | 210 | 0.0 | 5.2 | 0.00 | 0.00 | 0.00 | 44 | 1007.2 |
| 20260504222016 | 73 | 237 | 0.9 | 6.1 | 0.00 | 0.00 | 0.00 | 44 | 1007.2 |
| 20260504221512 | 73 | 157 | 1.7 | 6.1 | 0.00 | 0.00 | 0.00 | 43 | 1007.3 |
| 20260504221011 | 73 | 168 | 0.0 | 3.5 | 0.00 | 0.00 | 0.00 | 43 | 1007.3 |
| 20260504220512 | 74 | 179 | 0.9 | 3.5 | 0.00 | 0.00 | 0.00 | 44 | 1007.4 |
| 20260504220010 | 74 | 150 | 0.9 | 6.1 | 0.00 | 0.00 | 0.00 | 43 | 1007.4 |
| 20260504215508 | 73 | 298 | 0.9 | 13.9 | 0.00 | 0.00 | 0.00 | 44 | 1007.3 |
| 20260504215007 | 73 | 252 | 2.6 | 13.9 | 0.00 | 0.00 | 0.00 | 42 | 1007.5 |
| 20260504214517 | 74 | 120 | 1.7 | 9.6 | 0.00 | 0.00 | 0.00 | 42 | 1007.6 |
| 20260504214012 | 74 | 229 | 2.6 | 7.0 | 0.00 | 0.00 | 0.00 | 42 | 1007.5 |
| 20260504213505 | 74 | 221 | 0.9 | 4.3 | 0.00 | 0.00 | 0.00 | 44 | 1007.4 |
| 20260504213004 | 74 | 212 | 0.9 | 5.2 | 0.00 | 0.00 | 0.00 | 43 | 1007.5 |
| 20260504212603 | 74 | 176 | 0.0 | 5.2 | 0.00 | 0.00 | 0.00 | 43 | 1007.5 |
| 20260504212002 | 74 | 203 | 1.7 | 7.0 | 0.00 | 0.00 | 0.00 | 41 | 1007.5 |
| 20260504211600 | 74 | 163 | 0.0 | 7.0 | 0.00 | 0.00 | 0.00 | 42 | 1007.5 |
| 20260504211101 | 74 | 193 | 0.9 | 7.8 | 0.00 | 0.00 | 0.00 | 42 | 1007.4 |
| 20260504210558 | 74 | 186 | 2.6 | 7.8 | 0.00 | 0.00 | 0.00 | 42 | 1007.6 |
| 20260504210059 | 74 | 203 | 0.0 | 3.5 | 0.00 | 0.00 | 0.00 | 44 | 1007.6 |
| 20260504205555 | 73 | 252 | 0.9 | 3.5 | 0.00 | 0.00 | 0.00 | 44 | 1007.6 |
| 20260504205056 | 73 | 249 | 0.0 | 13.9 | 0.00 | 0.00 | 0.00 | 44 | 1007.6 |
| 20260504204553 | 73 | 221 | 0.9 | 13.9 | 0.00 | 0.00 | 0.00 | 43 | 1007.7 |
| 20260504204052 | 73 | 213 | 0.9 | 8.7 | 0.00 | 0.00 | 0.00 | 45 | 1007.7 |
| 20260504203550 | 73 | 224 | 1.7 | 7.8 | 0.00 | 0.00 | 0.00 | 43 | 1007.6 |
| 20260504203048 | 73 | 248 | 2.6 | 7.8 | 0.00 | 0.00 | 0.00 | 43 | 1007.7 |
| 20260504202547 | 73 | 202 | 1.7 | 7.8 | 0.00 | 0.00 | 0.00 | 45 | 1007.7 |
| 20260504202046 | 73 | 233 | 0.9 | 7.0 | 0.00 | 0.00 | 0.00 | 44 | 1008.0 |
| 20260504201559 | 73 | 207 | 0.9 | 9.6 | 0.00 | 0.00 | 0.00 | 44 | 1008.0 |
| 20260504201047 | 73 | 228 | 2.6 | 9.6 | 0.00 | 0.00 | 0.00 | 45 | 1008.0 |
| 20260504200543 | 72 | 155 | 0.0 | 20.0 | 0.00 | 0.00 | 0.00 | 45 | 1008.2 |
| 20260504200045 | 72 | 239 | 2.6 | 20.0 | 0.00 | 0.00 | 0.00 | 44 | 1008.3 |
| 20260504195540 | 73 | 250 | 1.7 | 9.6 | 0.00 | 0.00 | 0.00 | 43 | 1008.3 |
| 20260504195039 | 73 | 203 | 2.6 | 9.6 | 0.00 | 0.00 | 0.00 | 45 | 1008.4 |
| 20260504194541 | 73 | 233 | 0.9 | 11.3 | 0.00 | 0.00 | 0.00 | 46 | 1008.5 |
| 20260504194036 | 73 | 172 | 0.9 | 7.0 | 0.00 | 0.00 | 0.00 | 44 | 1008.5 |
| 20260504193534 | 72 | 235 | 0.9 | 9.6 | 0.00 | 0.00 | 0.00 | 45 | 1008.4 |
| 20260504193034 | 72 | 218 | 1.7 | 11.3 | 0.00 | 0.00 | 0.00 | 47 | 1008.5 |
| 20260504192533 | 72 | 238 | 2.6 | 14.8 | 0.00 | 0.00 | 0.00 | 43 | 1008.5 |
| 20260504192032 | 72 | 235 | 3.5 | 14.8 | 0.00 | 0.00 | 0.00 | 42 | 1008.6 |
| 20260504191530 | 72 | 228 | 0.9 | 8.7 | 0.00 | 0.00 | 0.00 | 45 | 1008.7 |
| 20260504191030 | 72 | 141 | 2.6 | 10.4 | 0.00 | 0.00 | 0.00 | 45 | 1008.7 |
| 20260504190531 | 71 | 237 | 4.3 | 10.4 | 0.00 | 0.00 | 0.00 | 43 | 1008.8 |
| 20260504190028 | 72 | 237 | 3.5 | 6.1 | 0.00 | 0.00 | 0.00 | 44 | 1009.0 |
| 20260504185525 | 73 | 199 | 2.6 | 5.2 | 0.00 | 0.00 | 0.00 | 42 | 1008.9 |
| 20260504185023 | 72 | 155 | 0.9 | 13.9 | 0.00 | 0.00 | 0.00 | 47 | 1009.0 |
| 20260504184524 | 72 | 236 | 2.6 | 13.9 | 0.00 | 0.00 | 0.00 | 43 | 1009.1 |
| 20260504184021 | 72 | 149 | 0.9 | 7.0 | 0.00 | 0.00 | 0.00 | 46 | 1009.1 |
| 20260504183520 | 72 | 240 | 0.9 | 7.0 | 0.00 | 0.00 | 0.00 | 46 | 1009.1 |
| 20260504183018 | 72 | 214 | 2.6 | 6.1 | 0.00 | 0.00 | 0.00 | 45 | 1009.2 |
| 20260504182515 | 71 | 198 | 1.7 | 9.6 | 0.00 | 0.00 | 0.00 | 44 | 1009.3 |
| 20260504182014 | 71 | 200 | 0.9 | 12.2 | 0.00 | 0.00 | 0.00 | 45 | 1009.5 |
| 20260504181523 | 71 | 146 | 2.6 | 7.8 | 0.00 | 0.00 | 0.00 | 44 | 1009.4 |
| 20260504181015 | 71 | 210 | 0.9 | 6.1 | 0.00 | 0.00 | 0.00 | 45 | 1009.6 |
| 20260504180511 | 71 | 226 | 0.9 | 6.1 | 0.00 | 0.00 | 0.00 | 44 | 1009.7 |
| 20260504180009 | 71 | 262 | 1.7 | 6.1 | 0.00 | 0.00 | 0.00 | 44 | 1009.7 |
| 20260504175508 | 70 | 159 | 1.7 | 5.2 | 0.00 | 0.00 | 0.00 | 44 | 1009.7 |
| 20260504175107 | 70 | 236 | 0.9 | 4.3 | 0.00 | 0.00 | 0.00 | 45 | 1009.7 |
| 20260504174506 | 70 | 173 | 1.7 | 9.6 | 0.00 | 0.00 | 0.00 | 44 | 1009.8 |
| 20260504174004 | 70 | 188 | 0.9 | 10.4 | 0.00 | 0.00 | 0.00 | 43 | 1009.8 |
| 20260504173504 | 70 | 178 | 2.6 | 10.4 | 0.00 | 0.00 | 0.00 | 45 | 1009.9 |
| 20260504173002 | 70 | 335 | 2.6 | 9.6 | 0.00 | 0.00 | 0.00 | 44 | 1009.9 |
| 20260504172600 | 70 | 262 | 1.7 | 9.6 | 0.00 | 0.00 | 0.00 | 45 | 1010.0 |
| 20260504172100 | 69 | 217 | 0.9 | 8.7 | 0.00 | 0.00 | 0.00 | 47 | 1010.1 |
| 20260504171608 | 69 | 217 | 2.6 | 8.7 | 0.00 | 0.00 | 0.00 | 44 | 1010.2 |
| 20260504171057 | 69 | 127 | 0.0 | 8.7 | 0.00 | 0.00 | 0.00 | 47 | 1010.3 |
| 20260504170554 | 68 | 196 | 3.5 | 13.0 | 0.00 | 0.00 | 0.00 | 44 | 1010.4 |
| 20260504151024 | 64 | 136 | 3.5 | 7.0 | 0.00 | 0.00 | 0.00 | 46 | 1011.9 |
| 20260504150523 | 64 | 261 | 2.6 | 6.1 | 0.00 | 0.00 | 0.00 | 46 | 1012.0 |
| 20260504141107 | 61 | 221 | 0.9 | 7.8 | 0.00 | 0.00 | 0.00 | 50 | 1012.5 |
| 20260504140508 | 61 | 221 | 1.7 | 7.8 | 0.00 | 0.00 | 0.00 | 51 | 1012.5 |
| 20260504130551 | 58 | 166 | 0.0 | 2.6 | 0.00 | 0.00 | 0.00 | 54 | 1012.7 |
| 20260504110519 | 50 | 88 | 0.0 | 0.9 | 0.00 | 0.00 | 0.00 | 56 | 1012.7 |
| 20260504100511 | 46 | 72 | 0.0 | 1.7 | 0.00 | 0.00 | 0.00 | 63 | 1012.6 |
| 20260504081547 | 48 | 157 | 0.0 | 1.7 | 0.00 | 0.00 | 0.00 | 60 | 1013.0 |
| 20260504081048 | 48 | 148 | 0.0 | 1.7 | 0.00 | 0.00 | 0.00 | 60 | 1012.9 |
| 20260504080546 | 48 | 160 | 0.0 | 1.7 | 0.00 | 0.00 | 0.00 | 60 | 1012.9 |
| 20260504050517 | 49 | 138 | 0.0 | 1.7 | 0.00 | 0.00 | 0.00 | 58 | 1013.1 |
| 20260504050014 | 49 | 234 | 0.0 | 0.9 | 0.00 | 0.00 | 0.00 | 58 | 1013.1 |
| 20260504045515 | 49 | 234 | 0.0 | 0.9 | 0.00 | 0.00 | 0.00 | 57 | 1013.1 |
| 20260504045013 | 49 | 253 | 0.0 | 1.7 | 0.00 | 0.00 | 0.00 | 57 | 1013.1 |
| 20260504044513 | 49 | 243 | 0.0 | 1.7 | 0.00 | 0.00 | 0.00 | 57 | 1013.1 |
| 20260504044012 | 49 | 265 | 0.0 | 0.9 | 0.00 | 0.00 | 0.00 | 57 | 1013.1 |
| 20260504043510 | 50 | 127 | 0.0 | 0.9 | 0.00 | 0.00 | 0.00 | 57 | 1013.1 |
| 20260504043010 | 50 | 132 | 0.0 | 2.6 | 0.00 | 0.00 | 0.00 | 55 | 1013.2 |
| 20260504042509 | 50 | 250 | 0.0 | 6.1 | 0.00 | 0.00 | 0.00 | 55 | 1013.1 |
| 20260504042006 | 50 | 260 | 0.0 | 0.9 | 0.00 | 0.00 | 0.00 | 56 | 1013.1 |
| 20260504041506 | 50 | 272 | 0.0 | 5.2 | 0.00 | 0.00 | 0.00 | 56 | 1013.2 |
| 20260504041005 | 50 | 264 | 0.9 | 5.2 | 0.00 | 0.00 | 0.00 | 55 | 1013.1 |
| 20260504040504 | 50 | 304 | 0.0 | 1.7 | 0.00 | 0.00 | 0.00 | 56 | 1013.0 |
| 20260504040003 | 50 | 235 | 0.0 | 4.3 | 0.00 | 0.00 | 0.00 | 56 | 1013.0 |
| 20260504035503 | 50 | 224 | 0.0 | 2.6 | 0.00 | 0.00 | 0.00 | 57 | 1013.0 |
| 20260504035001 | 49 | 281 | 0.0 | 2.6 | 0.00 | 0.00 | 0.00 | 56 | 1012.8 |
| 20260504034501 | 49 | 266 | 0.0 | 0.9 | 0.00 | 0.00 | 0.00 | 57 | 1012.8 |
| 20260504034100 | 49 | 212 | 0.0 | 0.9 | 0.00 | 0.00 | 0.00 | 58 | 1012.8 |
| 20260504033559 | 49 | 231 | 0.0 | 0.9 | 0.00 | 0.00 | 0.00 | 58 | 1012.8 |
| 20260504033116 | 49 | 197 | 0.0 | 0.0 | 0.00 | 0.00 | 0.00 | 58 | 1012.7 |
| 20260504032559 | 49 | 193 | 0.0 | 0.0 | 0.00 | 0.00 | 0.00 | 58 | 1012.8 |
| 20260504032058 | 49 | 193 | 0.0 | 0.9 | 0.00 | 0.00 | 0.00 | 58 | 1012.7 |
| 20260504031603 | 49 | 231 | 0.0 | 0.9 | 0.00 | 0.00 | 0.00 | 58 | 1012.7 |
| 20260504031100 | 48 | 254 | 0.0 | 0.9 | 0.00 | 0.00 | 0.00 | 58 | 1012.7 |
| 20260504030555 | 48 | 238 | 0.0 | 1.7 | 0.00 | 0.00 | 0.00 | 59 | 1012.6 |
| 20260504030055 | 48 | 231 | 0.0 | 1.7 | 0.00 | 0.00 | 0.00 | 59 | 1012.6 |
| 20260504025554 | 49 | 221 | 0.0 | 0.0 | 0.00 | 0.00 | 0.00 | 59 | 1012.6 |
| 20260504025054 | 49 | 221 | 0.0 | 0.9 | 0.00 | 0.00 | 0.00 | 58 | 1012.6 |
| 20260504024600 | 49 | 221 | 0.0 | 0.9 | 0.00 | 0.00 | 0.00 | 58 | 1012.6 |
| 20260504024052 | 48 | 221 | 0.0 | 1.7 | 0.00 | 0.00 | 0.00 | 58 | 1012.7 |
| 20260504023556 | 47 | 260 | 0.0 | 1.7 | 0.00 | 0.00 | 0.00 | 60 | 1012.6 |
| 20260504023051 | 46 | 254 | 0.0 | 0.0 | 0.00 | 0.00 | 0.00 | 62 | 1012.7 |
| 20260504022551 | 46 | 254 | 0.0 | 0.0 | 0.00 | 0.00 | 0.00 | 62 | 1012.7 |
| 20260504022050 | 46 | 254 | 0.0 | 0.0 | 0.00 | 0.00 | 0.00 | 62 | 1012.6 |
| 20260504021554 | 46 | 254 | 0.0 | 0.9 | 0.00 | 0.00 | 0.00 | 61 | 1012.7 |
| 20260504021052 | 46 | 254 | 0.0 | 0.0 | 0.00 | 0.00 | 0.00 | 62 | 1012.8 |
| 20260504020547 | 46 | 254 | 0.0 | 0.0 | 0.00 | 0.00 | 0.00 | 62 | 1012.7 |
| 20260504020050 | 46 | 254 | 0.0 | 0.0 | 0.00 | 0.00 | 0.00 | 62 | 1012.7 |
| 20260504015546 | 47 | 254 | 0.0 | 0.0 | 0.00 | 0.00 | 0.00 | 61 | 1012.7 |
| 20260504015047 | 47 | 254 | 0.0 | 0.0 | 0.00 | 0.00 | 0.00 | 62 | 1012.7 |
| 20260504014546 | 47 | 254 | 0.0 | 0.0 | 0.00 | 0.00 | 0.00 | 61 | 1012.7 |
| 20260504014046 | 47 | 254 | 0.0 | 0.0 | 0.00 | 0.00 | 0.00 | 60 | 1012.7 |
| 20260504013545 | 47 | 254 | 0.0 | 0.0 | 0.00 | 0.00 | 0.00 | 60 | 1012.5 |
| 20260504013048 | 47 | 254 | 0.0 | 0.0 | 0.00 | 0.00 | 0.00 | 61 | 1012.6 |
| 20260504012546 | 47 | 254 | 0.0 | 0.0 | 0.00 | 0.00 | 0.00 | 60 | 1012.6 |
| 20260504012044 | 47 | 254 | 0.0 | 0.0 | 0.00 | 0.00 | 0.00 | 59 | 1012.4 |